Location: Montclair
(37.8322°N, 122.2092°W)
Time: 19:23:02
(UTC+00:00)

Cosmos 1606 Rocket - Visible Passes

Search period start: 05 December 2024 00:00
Search period end: 15 December 2024 00:00
Orbit: 597 x 628 km, 82.5° (Epoch: 05 December)

Date Brightness Start Highest point End Pass type
(mag) Time Alt. Az. Time Alt. Az. Time Alt. Az.
05 Dec 6.4 02:34:50 10° WSW 02:37:22 15° WNW 02:39:55 10° NW visible
05 Dec 5.8 12:50:12 15° S 12:50:12 15° S 12:50:56 10° S visible
06 Dec 3.5 01:10:25 10° S 01:14:41 73° E 01:18:58 10° NNE visible
07 Dec 4.2 01:25:43 10° SSW 01:29:56 59° W 01:34:11 10° N visible
08 Dec 5.4 01:41:27 10° SW 01:45:16 31° WNW 01:49:06 10° NNW visible
09 Dec 6.3 01:57:46 10° WSW 02:00:41 18° WNW 02:03:37 10° NNW visible
13 Dec 6.1 01:20:44 10° SW 01:23:57 21° WNW 01:27:12 10° NNW visible
14 Dec 6.5 01:37:57 10° W 01:39:25 12° WNW 01:40:54 10° NW visible
